Time,TemperatureF,DewpointF,PressureIn,WindDirection,WindDirectionDegrees,WindSpeedMPH,WindSpeedGustMPH,Humidity,HourlyPrecipIn,Conditions,Clouds,dailyrainin,SoftwareType,DateUTC
2014-11-28 00:05:00,42.6,38.1,30.35,SSW,195,0.0,0.0,84,0.00,,,0.00,Wunderground v.1.15,2014-11-28 06:05:00,
2014-11-28 00:15:00,42.7,38.2,30.35,SSW,195,0.0,0.0,84,0.00,,,0.00,Wunderground v.1.15,2014-11-28 06:15:00,
2014-11-28 00:20:00,42.8,38.0,30.35,SSW,195,0.0,0.0,83,0.00,,,0.00,Wunderground v.1.15,2014-11-28 06:20:00,
2014-11-28 00:25:00,43.1,38.0,30.35,SSW,195,0.0,0.0,82,0.00,,,0.00,Wunderground v.1.15,2014-11-28 06:25:00,
2014-11-28 00:30:00,43.3,37.9,30.35,SSW,195,0.0,0.0,81,0.00,,,0.00,Wunderground v.1.15,2014-11-28 06:30:00,
2014-11-28 00:40:00,43.7,37.3,30.35,SSW,195,0.0,0.0,78,0.00,,,0.00,Wunderground v.1.15,2014-11-28 06:40:00,
2014-11-28 00:45:00,44.0,37.3,30.35,SSW,195,0.0,0.0,77,0.00,,,0.00,Wunderground v.1.15,2014-11-28 06:45:00,
2014-11-28 00:50:00,44.2,37.4,30.35,SSW,195,0.0,0.0,77,0.00,,,0.00,Wunderground v.1.15,2014-11-28 06:50:00,
2014-11-28 00:55:00,44.3,37.2,30.35,SSW,195,0.0,0.0,76,0.00,,,0.00,Wunderground v.1.15,2014-11-28 06:55:00,
2014-11-28 01:00:00,44.4,37.3,30.34,SSW,195,0.0,0.0,76,0.00,,,0.00,Wunderground v.1.15,2014-11-28 07:00:00,
2014-11-28 01:05:00,44.4,37.6,30.34,SSW,195,0.0,0.0,77,0.00,,,0.00,Wunderground v.1.15,2014-11-28 07:05:00,
2014-11-28 01:15:00,44.3,37.2,30.34,SSW,195,0.0,0.0,76,0.00,,,0.00,Wunderground v.1.15,2014-11-28 07:15:00,
2014-11-28 01:20:00,44.2,37.1,30.34,SSW,195,0.0,0.0,76,0.00,,,0.00,Wunderground v.1.15,2014-11-28 07:20:00,
2014-11-28 01:25:00,44.2,37.1,30.34,SSW,195,0.0,0.0,76,0.00,,,0.00,Wunderground v.1.15,2014-11-28 07:25:00,
2014-11-28 01:30:00,44.1,37.0,30.34,SSW,195,0.0,0.0,76,0.00,,,0.00,Wunderground v.1.15,2014-11-28 07:30:00,
2014-11-28 01:35:00,44.0,36.9,30.34,SSW,195,0.0,0.0,76,0.00,,,0.00,Wunderground v.1.15,2014-11-28 07:35:00,
2014-11-28 01:45:00,43.7,37.3,30.34,SSW,195,0.0,0.0,78,0.00,,,0.00,Wunderground v.1.15,2014-11-28 07:45:00,
2014-11-28 01:50:00,43.5,37.1,30.34,SSW,195,0.0,0.0,78,0.00,,,0.00,Wunderground v.1.15,2014-11-28 07:50:00,
2014-11-28 01:55:00,43.3,36.9,30.34,SSW,195,0.0,0.0,78,0.00,,,0.00,Wunderground v.1.15,2014-11-28 07:55:00,
2014-11-28 02:00:00,43.3,37.2,30.34,SSW,195,0.0,0.0,79,0.00,,,0.00,Wunderground v.1.15,2014-11-28 08:00:00,
2014-11-28 02:05:00,43.2,37.1,30.33,SSW,195,0.0,0.0,79,0.00,,,0.00,Wunderground v.1.15,2014-11-28 08:05:00,
2014-11-28 02:15:00,42.7,37.3,30.33,SSW,195,0.0,0.0,81,0.00,,,0.00,Wunderground v.1.15,2014-11-28 08:15:00,
2014-11-28 02:20:00,42.5,37.1,30.33,SSW,195,0.0,0.0,81,0.00,,,0.00,Wunderground v.1.15,2014-11-28 08:20:00,
2014-11-28 02:25:00,42.4,37.3,30.33,SSW,195,0.0,0.0,82,0.00,,,0.00,Wunderground v.1.15,2014-11-28 08:25:00,
2014-11-28 02:30:00,42.3,37.2,30.33,SSW,195,0.0,0.0,82,0.00,,,0.00,Wunderground v.1.15,2014-11-28 08:30:00,
2014-11-28 02:35:00,42.3,37.2,30.33,SSW,195,0.0,0.0,82,0.00,,,0.00,Wunderground v.1.15,2014-11-28 08:35:00,
2014-11-28 02:40:00,42.3,37.2,30.33,SSW,195,0.0,0.0,82,0.00,,,0.00,Wunderground v.1.15,2014-11-28 08:40:00,
2014-11-28 02:50:00,42.2,37.4,30.33,SSW,195,0.0,0.0,83,0.00,,,0.00,Wunderground v.1.15,2014-11-28 08:50:00,
2014-11-28 02:55:00,42.2,37.4,30.33,SSW,195,0.0,0.0,83,0.00,,,0.00,Wunderground v.1.15,2014-11-28 08:55:00,
2014-11-28 03:00:00,42.0,36.9,30.33,SSW,195,0.0,0.0,82,0.00,,,0.00,Wunderground v.1.15,2014-11-28 09:00:00,
2014-11-28 03:05:00,41.9,37.1,30.33,SSW,195,0.0,0.0,83,0.00,,,0.00,Wunderground v.1.15,2014-11-28 09:05:00,
2014-11-28 03:15:00,41.8,37.0,30.33,SSW,195,0.0,0.0,83,0.00,,,0.00,Wunderground v.1.15,2014-11-28 09:15:00,
2014-11-28 03:20:00,41.7,36.9,30.32,SSW,195,0.0,0.0,83,0.00,,,0.00,Wunderground v.1.15,2014-11-28 09:20:00,
2014-11-28 03:25:00,41.6,36.8,30.33,SSW,195,0.0,0.0,83,0.00,,,0.00,Wunderground v.1.15,2014-11-28 09:25:00,
2014-11-28 03:30:00,41.5,36.7,30.32,SSW,195,0.0,0.0,83,0.00,,,0.00,Wunderground v.1.15,2014-11-28 09:30:00,
2014-11-28 03:35:00,41.5,36.7,30.33,SSW,195,0.0,0.0,83,0.00,,,0.00,Wunderground v.1.15,2014-11-28 09:35:00,
2014-11-28 03:40:00,41.5,36.7,30.33,SSW,195,0.0,0.0,83,0.00,,,0.00,Wunderground v.1.15,2014-11-28 09:40:00,
2014-11-28 03:45:00,41.6,36.8,30.32,SSW,195,0.0,0.0,83,0.00,,,0.00,Wunderground v.1.15,2014-11-28 09:45:00,
2014-11-28 03:55:00,41.8,36.7,30.32,SSW,195,0.0,0.0,82,0.00,,,0.00,Wunderground v.1.15,2014-11-28 09:55:00,
2014-11-28 04:00:00,41.8,36.7,30.32,SSW,195,0.0,0.0,82,0.00,,,0.00,Wunderground v.1.15,2014-11-28 10:00:00,
2014-11-28 04:05:00,41.8,36.4,30.32,SSW,195,0.0,0.0,81,0.00,,,0.00,Wunderground v.1.15,2014-11-28 10:05:00,
2014-11-28 04:15:00,41.8,36.7,30.32,SSW,195,0.0,0.0,82,0.00,,,0.00,Wunderground v.1.15,2014-11-28 10:15:00,
2014-11-28 04:20:00,41.7,36.9,30.32,SSW,195,0.0,0.0,83,0.00,,,0.00,Wunderground v.1.15,2014-11-28 10:20:00,
2014-11-28 04:25:00,41.6,36.8,30.31,SSW,195,0.0,0.0,83,0.00,,,0.00,Wunderground v.1.15,2014-11-28 10:25:00,
2014-11-28 04:30:00,41.6,37.1,30.31,SSW,195,0.0,0.0,84,0.00,,,0.00,Wunderground v.1.15,2014-11-28 10:30:00,
2014-11-28 04:35:00,41.6,37.1,30.31,SSW,195,0.0,0.0,84,0.00,,,0.00,Wunderground v.1.15,2014-11-28 10:35:00,
2014-11-28 04:40:00,41.6,36.8,30.31,SSW,195,0.0,0.0,83,0.00,,,0.00,Wunderground v.1.15,2014-11-28 10:40:00,
2014-11-28 04:45:00,41.5,36.7,30.31,SSW,195,0.0,0.0,83,0.00,,,0.00,Wunderground v.1.15,2014-11-28 10:45:00,
2014-11-28 04:50:00,41.5,37.0,30.31,SSW,195,0.0,0.0,84,0.00,,,0.00,Wunderground v.1.15,2014-11-28 10:50:00,
2014-11-28 05:00:00,41.3,36.5,30.31,SSW,195,0.0,0.0,83,0.00,,,0.00,Wunderground v.1.15,2014-11-28 11:00:00,
2014-11-28 05:05:00,41.3,36.5,30.31,SSW,195,0.0,0.0,83,0.00,,,0.00,Wunderground v.1.15,2014-11-28 11:05:00,
2014-11-28 05:15:00,41.6,36.2,30.31,SSW,195,0.0,0.0,81,0.00,,,0.00,Wunderground v.1.15,2014-11-28 11:15:00,
2014-11-28 05:20:00,41.9,36.5,30.30,SSW,195,0.0,0.0,81,0.00,,,0.00,Wunderground v.1.15,2014-11-28 11:20:00,
2014-11-28 05:25:00,42.0,36.6,30.30,SSW,195,0.0,0.0,81,0.00,,,0.00,Wunderground v.1.15,2014-11-28 11:25:00,
2014-11-28 05:30:00,42.0,36.9,30.30,SSW,195,0.0,0.0,82,0.00,,,0.00,Wunderground v.1.15,2014-11-28 11:30:00,
2014-11-28 05:35:00,42.0,37.2,30.30,SSW,195,0.0,0.0,83,0.00,,,0.00,Wunderground v.1.15,2014-11-28 11:35:00,
2014-11-28 05:40:00,42.0,37.2,30.30,SSW,195,0.0,0.0,83,0.00,,,0.00,Wunderground v.1.15,2014-11-28 11:40:00,
2014-11-28 05:45:00,42.1,37.6,30.31,SSW,195,0.0,0.0,84,0.00,,,0.00,Wunderground v.1.15,2014-11-28 11:45:00,
2014-11-28 05:50:00,42.5,38.3,30.31,SSW,195,0.0,0.0,85,0.00,,,0.00,Wunderground v.1.15,2014-11-28 11:50:00,
2014-11-28 05:55:00,42.7,38.8,30.31,SSW,195,0.0,0.0,86,0.00,,,0.00,Wunderground v.1.15,2014-11-28 11:55:00,
2014-11-28 06:05:00,43.2,39.3,30.31,SSW,195,0.0,0.0,86,0.00,,,0.00,Wunderground v.1.15,2014-11-28 12:05:00,
2014-11-28 06:15:00,43.7,39.5,30.30,SSW,195,0.0,0.0,85,0.00,,,0.00,Wunderground v.1.15,2014-11-28 12:15:00,
2014-11-28 06:20:00,43.8,39.6,30.30,SSW,195,0.0,0.0,85,0.00,,,0.00,Wunderground v.1.15,2014-11-28 12:20:00,
2014-11-28 06:25:00,44.0,39.5,30.30,SSW,195,0.0,0.0,84,0.00,,,0.00,Wunderground v.1.15,2014-11-28 12:25:00,
2014-11-28 06:30:00,44.3,39.5,30.30,SSW,195,0.0,0.0,83,0.00,,,0.00,Wunderground v.1.15,2014-11-28 12:30:00,
2014-11-28 06:35:00,44.8,39.3,30.30,SSW,195,0.0,0.0,81,0.00,,,0.00,Wunderground v.1.15,2014-11-28 12:35:00,
2014-11-28 06:40:00,45.2,39.1,30.30,SSW,195,0.0,0.0,79,0.00,,,0.00,Wunderground v.1.15,2014-11-28 12:40:00,
2014-11-28 06:45:00,45.8,40.0,30.30,SSW,195,0.0,0.0,80,0.00,,,0.00,Wunderground v.1.15,2014-11-28 12:45:00,
2014-11-28 06:50:00,46.3,40.1,30.30,SSW,195,0.0,0.0,79,0.00,,,0.00,Wunderground v.1.15,2014-11-28 12:50:00,
2014-11-28 06:55:00,46.9,40.4,30.29,SSW,196,0.0,0.0,78,0.00,,,0.00,Wunderground v.1.15,2014-11-28 12:55:00,
2014-11-28 07:00:00,47.3,41.1,30.29,SSW,210,0.0,0.0,79,0.00,,,0.00,Wunderground v.1.15,2014-11-28 13:00:00,
2014-11-28 07:05:00,47.6,41.4,30.29,SW,234,0.0,0.0,79,0.00,,,0.00,Wunderground v.1.15,2014-11-28 13:05:00,
2014-11-28 07:15:00,48.0,41.8,30.29,SW,235,0.0,0.0,79,0.00,,,0.00,Wunderground v.1.15,2014-11-28 13:15:00,
2014-11-28 07:20:00,48.2,42.0,30.29,SW,235,0.0,0.0,79,0.00,,,0.00,Wunderground v.1.15,2014-11-28 13:20:00,
2014-11-28 07:25:00,48.2,42.0,30.29,SW,235,0.0,0.0,79,0.00,,,0.00,Wunderground v.1.15,2014-11-28 13:25:00,
2014-11-28 07:30:00,48.1,41.9,30.29,SW,234,0.0,0.0,79,0.00,,,0.00,Wunderground v.1.15,2014-11-28 13:30:00,
2014-11-28 07:35:00,48.1,41.9,30.30,SW,235,0.0,0.0,79,0.00,,,0.00,Wunderground v.1.15,2014-11-28 13:35:00,
2014-11-28 07:45:00,48.2,42.3,30.30,SW,235,0.0,0.0,80,0.00,,,0.00,Wunderground v.1.15,2014-11-28 13:45:00,
2014-11-28 07:50:00,48.3,42.7,30.30,SW,235,0.0,0.0,81,0.00,,,0.00,Wunderground v.1.15,2014-11-28 13:50:00,
2014-11-28 07:55:00,48.4,42.8,30.30,SW,234,0.0,0.0,81,0.00,,,0.00,Wunderground v.1.15,2014-11-28 13:55:00,
2014-11-28 08:00:00,48.7,43.5,30.30,SW,235,0.0,0.0,82,0.00,,,0.00,Wunderground v.1.15,2014-11-28 14:00:00,
2014-11-28 08:05:00,48.9,44.0,30.30,SW,235,0.0,0.0,83,0.00,,,0.00,Wunderground v.1.15,2014-11-28 14:05:00,
2014-11-28 08:15:00,49.2,44.3,30.30,SW,235,0.0,0.0,83,0.00,,,0.00,Wunderground v.1.15,2014-11-28 14:15:00,
2014-11-28 08:20:00,49.4,44.5,30.30,SW,234,0.0,0.0,83,0.00,,,0.00,Wunderground v.1.15,2014-11-28 14:20:00,
2014-11-28 08:25:00,49.6,44.6,30.30,SW,234,0.0,0.0,83,0.00,,,0.00,Wunderground v.1.15,2014-11-28 14:25:00,
2014-11-28 08:30:00,50.0,45.7,30.31,SW,235,0.0,0.0,85,0.00,,,0.00,Wunderground v.1.15,2014-11-28 14:30:00,
2014-11-28 08:35:00,50.4,46.1,30.30,SW,235,0.0,0.0,85,0.00,,,0.00,Wunderground v.1.15,2014-11-28 14:35:00,
2014-11-28 08:40:00,51.0,46.6,30.30,SW,234,0.0,0.0,85,0.00,,,0.00,Wunderground v.1.15,2014-11-28 14:40:00,
2014-11-28 08:50:00,52.5,48.4,30.30,SSW,209,0.0,0.0,86,0.00,,,0.00,Wunderground v.1.15,2014-11-28 14:50:00,
2014-11-28 08:55:00,53.0,48.9,30.30,SSW,204,1.0,1.0,86,0.00,,,0.00,Wunderground v.1.15,2014-11-28 14:55:00,
2014-11-28 09:00:00,53.6,49.2,30.30,WSW,240,0.0,1.0,85,0.00,,,0.00,Wunderground v.1.15,2014-11-28 15:00:00,
2014-11-28 09:05:00,54.3,49.9,30.30,SW,234,0.0,1.0,85,0.00,,,0.00,Wunderground v.1.15,2014-11-28 15:05:00,
2014-11-28 09:15:00,55.3,50.5,30.30,WSW,237,1.0,3.0,84,0.00,,,0.00,Wunderground v.1.15,2014-11-28 15:15:00,
2014-11-28 09:20:00,55.7,50.6,30.30,SSW,209,1.0,1.0,83,0.00,,,0.00,Wunderground v.1.15,2014-11-28 15:20:00,
2014-11-28 09:25:00,56.0,50.9,30.30,WSW,247,1.0,1.0,83,0.00,,,0.00,Wunderground v.1.15,2014-11-28 15:25:00,
2014-11-28 09:30:00,56.4,51.3,30.30,South,180,1.0,1.0,83,0.00,,,0.00,Wunderground v.1.15,2014-11-28 15:30:00,
2014-11-28 09:35:00,56.9,51.5,30.30,SSW,210,0.0,1.0,82,0.00,,,0.00,Wunderground v.1.15,2014-11-28 15:35:00,
2014-11-28 09:40:00,57.3,51.9,30.30,SW,226,0.0,2.0,82,0.00,,,0.00,Wunderground v.1.15,2014-11-28 15:40:00,
2014-11-28 09:45:00,57.5,52.0,30.29,SW,226,0.0,2.0,82,0.00,,,0.00,Wunderground v.1.15,2014-11-28 15:45:00,
2014-11-28 09:55:00,58.2,52.4,30.29,South,188,0.0,0.0,81,0.00,,,0.00,Wunderground v.1.15,2014-11-28 15:55:00,
2014-11-28 10:00:00,58.6,53.1,30.29,SW,225,0.0,0.0,82,0.00,,,0.00,Wunderground v.1.15,2014-11-28 16:00:00,
2014-11-28 10:05:00,59.0,53.2,30.29,SSW,193,0.0,1.0,81,0.00,,,0.00,Wunderground v.1.15,2014-11-28 16:05:00,
2014-11-28 10:15:00,59.6,53.8,30.29,SSW,213,1.0,2.0,81,0.00,,,0.00,Wunderground v.1.15,2014-11-28 16:15:00,
2014-11-28 10:25:00,60.0,54.5,30.28,WSW,250,1.0,2.0,82,0.00,,,0.00,Wunderground v.1.15,2014-11-28 16:25:00,
2014-11-28 10:30:00,60.7,54.8,30.28,WSW,250,1.0,3.0,81,0.00,,,0.00,Wunderground v.1.15,2014-11-28 16:30:00,
2014-11-28 10:35:00,61.3,55.1,30.28,SW,219,1.0,3.0,80,0.00,,,0.00,Wunderground v.1.15,2014-11-28 16:35:00,
2014-11-28 10:40:00,61.8,55.2,30.27,SSW,202,1.0,2.0,79,0.00,,,0.00,Wunderground v.1.15,2014-11-28 16:40:00,
2014-11-28 10:45:00,62.2,55.6,30.27,WSW,257,1.0,2.0,79,0.00,,,0.00,Wunderground v.1.15,2014-11-28 16:45:00,
2014-11-28 10:50:00,62.7,55.7,30.26,West,263,1.0,1.0,78,0.00,,,0.00,Wunderground v.1.15,2014-11-28 16:50:00,
2014-11-28 11:00:00,63.8,55.7,30.26,SSW,213,0.0,0.0,75,0.00,,,0.00,Wunderground v.1.15,2014-11-28 17:00:00,
2014-11-28 11:05:00,64.3,55.8,30.26,South,182,0.0,0.0,74,0.00,,,0.00,Wunderground v.1.15,2014-11-28 17:05:00,
2014-11-28 11:15:00,64.6,55.4,30.24,SW,232,2.0,2.0,72,0.00,,,0.00,Wunderground v.1.15,2014-11-28 17:15:00,
2014-11-28 11:20:00,65.0,56.1,30.24,East,97,2.0,2.0,73,0.00,,,0.00,Wunderground v.1.15,2014-11-28 17:20:00,
2014-11-28 11:30:00,66.2,55.7,30.24,West,259,1.0,1.0,69,0.00,,,0.00,Wunderground v.1.15,2014-11-28 17:30:00,
2014-11-28 11:35:00,66.7,56.2,30.23,SW,218,1.0,1.0,69,0.00,,,0.00,Wunderground v.1.15,2014-11-28 17:35:00,
2014-11-28 11:40:00,67.2,55.9,30.23,SW,229,0.0,5.0,67,0.00,,,0.00,Wunderground v.1.15,2014-11-28 17:40:00,
2014-11-28 11:45:00,67.2,55.9,30.22,WSW,244,1.0,5.0,67,0.00,,,0.00,Wunderground v.1.15,2014-11-28 17:45:00,
2014-11-28 11:50:00,67.5,55.7,30.22,SSE,159,1.0,1.0,66,0.00,,,0.00,Wunderground v.1.15,2014-11-28 17:50:00,
2014-11-28 11:55:00,67.5,54.9,30.21,SSW,193,1.0,1.0,64,0.00,,,0.00,Wunderground v.1.15,2014-11-28 17:55:00,
2014-11-28 12:05:00,68.4,55.3,30.21,SSW,210,1.0,2.0,63,0.00,,,0.00,Wunderground v.1.15,2014-11-28 18:05:00,